Regional Weather Roundup
Issued by NWS

Home | Current Version | Previous Version | Text Only | Print | Product List | Glossary Off
Versions: 1 2 3 4 5 6 7 8 9 10 11 12 13 14 15 16 17 18 19 20 21 22 23 24 25 26 27

000
ASUS45 KBOU 222207
RWRCO

WEATHER ROUNDUP FOR COLORADO
NATIONAL WEATHER SERVICE DENVER/BOULDER CO
400 PM MDT FRI SEP 22 2017

NOTE: "FAIR" INDICATES FEW OR NO CLOUDS BELOW 12000 FEET WITH NO
SIGNIFICANT WEATHER AND/OR OBSTRUCTIONS TO VISIBILITY.

COZ001>005-013-030-031-222300-
...NORTHWEST COLORADO...

CITY           SKY/WX    TMP DP  RH WIND       PRES   REMARKS
CRAIG          FAIR      63  38  39 NW8       29.84S
HAYDEN         FAIR      67  34  29 S15G25    29.85F
MEEKER         PTSUNNY   65  33  30 W31G43    29.85R
RABBIT EARS PA MOCLDY    50  34  53 S9G21     30.08S
STEAMBOAT SPGS CLOUDY    55  40  56 SW7G20    29.89R
WALDEN         PTSUNNY   61  32  33 SW10G18   29.93S
$$

COZ006>008-011-222300-
...WEST CENTRAL VALLEYS...

CITY           SKY/WX    TMP DP  RH WIND       PRES   REMARKS
GRAND JUNCTION FAIR      75  33  21 SW18G26   29.75F
MONTROSE       LGT RAIN  68  41  37 S13G24    29.85R
EAGLE          PTSUNNY   70  31  23 SW28      29.85F
RIFLE          FAIR      77  25  14 SW25G36   29.77F
DELTA          NOT AVBL
NUCLA          FAIR      73  21  14 SW29G39   29.86S
$$

COZ017>023-064>068-222300-
...SOUTHWEST COLORADO...

CITY           SKY/WX    TMP DP  RH WIND       PRES   REMARKS
DURANGO        FAIR      71  34  25 SW18G32   29.92F
CORTEZ         FAIR      76  26  15 SW22G35   29.85F
PAGOSA SPRINGS PTSUNNY   65  35  32 S16       30.02S
TELLURIDE      PTSUNNY   52  38  59 S12G31    30.05F
WOLF CREEK PAS TSTM      36  36 100 S10G17    30.28R
$$

COZ009-010-012-014-032>034-037-058>063-222300-
...CENTRAL COLORADO...

CITY           SKY/WX    TMP DP  RH WIND       PRES   REMARKS
ASPEN          LGT RAIN  66  34  30 S35G46    29.93R
BUENA VISTA    LGT RAIN  65  33  29 S10G17    29.95F
COPPER MTN     PTSUNNY   52  30  43 S36G46    30.14F
BERTHOUD PASS  FLURRIES  37  30  75 S38G63    30.21F
COTTONWOOD PAS CLOUDY    61  32  33 W13G21    30.08S
GUNNISON       LGT RAIN  62  37  39 W12       29.98R
KREMMLING      FAIR      64  45  48 W6        29.91F
LEADVILLE      PTSUNNY   56  27  32 S22G30    30.04F
MONARCH PASS   CLOUDY    46  28  49 SW51G60   30.29F
SALIDA         PTSUNNY   72  31  22 SW15      30.01F
SUNLIGHT       CLOUDY    45  32  61 SW17G29   30.10S
WILKERSON PASS CLOUDY    52  30  43 SW16G28   30.19S
$$

COZ069>075-222300-
...SAN LUIS VALLEY/SANGRE DE CRISTO MOUNTAINS...

CITY           SKY/WX    TMP DP  RH WIND       PRES   REMARKS
ALAMOSA        FAIR      72  32  23 SW26G36   29.97F
DEL NORTE      FAIR      60  40  46 W23       30.04R
LA VETA PASS   FAIR      59  30  33 S25G43    30.26R
SAGUACHE       FAIR      66  34  30 SW18G24   30.02R
$$

COZ035-036-038>040-222300-
...NORTHERN COLORADO FRONT RANGE...

CITY           SKY/WX    TMP DP  RH WIND       PRES   REMARKS
DENVER INTL AP PTSUNNY   73  40  30 NW25G32   29.76R
DMNS CITY PARK   N/A     69  39  34 N8G22     29.79R
AURORA         PTSUNNY   72  41  33 NW17      29.79R
FRONT RANGE AP PTSUNNY   82  37  20 NW17G25   29.77R
ERIE MUNI ARPT PTSUNNY   72  39  30 N17       29.83F
BOULDER MUN AP FAIR      73  37  27 N12G17    29.79F
CENTENNIAL     PTSUNNY   71  41  33 NW16      29.80R
BROOMFIELD     PTSUNNY   72  39  30 NW14      29.81S
FORT COLLINS   LGT RAIN  67  46  47 NE21      29.82R
LONGMONT       FAIR      75  42  31 N10       29.81S
$$

COZ041-046-047-076>085-087-088-222300-
...PIKES PEAK/PALMER DIVIDE AND SOUTHERN FOOTHILLS...

CITY           SKY/WX    TMP DP  RH WIND       PRES   REMARKS
COLO. SPRINGS  PTSUNNY   80  31  16 S23G32    29.84F
A. F. ACADEMY  FAIR      79  28  15 S24G37    29.84F
SCHRIEVER AFB  FAIR      77  29  17 S24G31    29.86S
CHEYENNE MTN   PTSUNNY   73  28  18 S21G37    29.83S
ELLICOTT         N/A    N/A N/A N/A S25G36    29.84F
FALCON         FAIR      76  27  16 S24G35    29.90F
FORT CARSON    FAIR      80  31  16 S28       29.80F
LIMON          NOT AVBL
MONUMENT HILL  FAIR      73  30  20 S24G32    29.90S
CANON CITY     MOSUNNY   88  34  14 S14G28    29.77F
WALSENBURG     FAIR      81  28  15 SW21G32   29.87S
TRINIDAD       FAIR      82  36  19 S26G41    29.86S
$$

COZ042>045-048>051-090-091-222300-
...NORTHEAST COLORADO...

CITY           SKY/WX    TMP DP  RH WIND       PRES   REMARKS
GREELEY ARPT   PTSUNNY   73  42  32 N25       29.78R
AKRON          FAIR      84  33  16 S18       29.76F
BURLINGTON     FAIR      89  36  15 SW23G36   29.79F
WRAY           FAIR      90  32  12 S22G29    29.73R
YUMA           FAIR      84  36  17 S17G25    29.75S
STERLING       FAIR      77  46  33 NE15      29.75S
HOLYOKE        FAIR      84  41  21 NE9       29.75S
FORT MORGAN    FAIR      76  38  25 NE22G30   29.74F
$$

COZ086-089-092>099-222300-
...SOUTHEAST COLORADO...

CITY           SKY/WX    TMP DP  RH WIND       PRES   REMARKS
PUEBLO         FAIR      86  30  13 S26G37    29.75F
LA JUNTA       FAIR      91  35  13 S21G32    29.75F
LAMAR          FAIR      92  36  14 S23G36    29.74S
SPRINGFIELD      N/A     87  48  25 S28G35    29.82F
$$




USA.gov is the U.S. government's official web portal to all federal, state and local government web resources and services.